TimeCST,TemperatureF,Dew PointF,Humidity,Sea Level PressureIn,VisibilityMPH,Wind Direction,Wind SpeedMPH,Gust SpeedMPH,PrecipitationIn,Events,Conditions,WindDirDegrees,DateUTC
12:15 AM,39.0,32.0,76,30.07,10.0,SSE,5.8,-,N/A,,Clear,150,2012-11-18 06:15:00
12:35 AM,38.7,32.0,77,30.07,10.0,SE,4.6,-,N/A,,Clear,140,2012-11-18 06:35:00
12:55 AM,37.8,32.0,80,30.07,10.0,SE,5.8,-,N/A,,Clear,140,2012-11-18 06:55:00
1:15 AM,37.2,31.5,80,30.07,10.0,SSE,4.6,-,N/A,,Clear,150,2012-11-18 07:15:00
1:55 AM,37.8,31.6,79,30.06,10.0,SE,5.8,-,N/A,,Clear,130,2012-11-18 07:55:00
2:15 AM,37.4,31.5,79,30.06,10.0,SE,4.6,-,N/A,,Clear,130,2012-11-18 08:15:00
2:35 AM,35.4,30.9,84,30.06,10.0,SE,4.6,-,N/A,,Clear,140,2012-11-18 08:35:00
2:55 AM,35.4,30.9,84,30.06,10.0,SE,4.6,-,N/A,,Clear,130,2012-11-18 08:55:00
3:15 AM,37.9,31.8,79,30.06,10.0,ESE,3.5,-,N/A,,Clear,120,2012-11-18 09:15:00
3:35 AM,37.6,31.6,79,30.05,10.0,ESE,4.6,-,N/A,,Clear,120,2012-11-18 09:35:00
3:55 AM,36.1,31.1,82,30.05,10.0,SE,5.8,-,N/A,,Clear,140,2012-11-18 09:55:00
4:15 AM,34.9,30.9,85,30.05,10.0,SSE,5.8,-,N/A,,Clear,160,2012-11-18 10:15:00
4:35 AM,33.1,29.7,87,30.05,10.0,SE,4.6,-,N/A,,Clear,140,2012-11-18 10:35:00
4:55 AM,34.2,30.2,85,30.05,10.0,SSE,4.6,-,N/A,,Clear,150,2012-11-18 10:55:00
5:15 AM,34.7,30.2,84,30.05,10.0,SSE,3.5,-,N/A,,Clear,150,2012-11-18 11:15:00
5:35 AM,35.1,30.7,84,30.05,10.0,SE,5.8,-,N/A,,Clear,140,2012-11-18 11:35:00
5:55 AM,35.8,31.1,83,30.05,10.0,SE,8.1,-,N/A,,Clear,140,2012-11-18 11:55:00
6:15 AM,36.7,31.6,82,30.05,10.0,SE,6.9,-,N/A,,Clear,130,2012-11-18 12:15:00
6:35 AM,35.2,30.7,84,30.05,10.0,SE,8.1,-,N/A,,Clear,140,2012-11-18 12:35:00
6:55 AM,34.9,30.7,85,30.05,10.0,SE,5.8,-,N/A,,Clear,130,2012-11-18 12:55:00
7:15 AM,34.5,30.2,84,30.05,10.0,SE,4.6,-,N/A,,Clear,130,2012-11-18 13:15:00
7:35 AM,33.8,29.8,85,30.05,10.0,SE,4.6,-,N/A,,Clear,140,2012-11-18 13:35:00
7:55 AM,34.3,30.6,86,30.05,10.0,SE,5.8,-,N/A,,Clear,140,2012-11-18 13:55:00
8:15 AM,36.7,32.0,83,30.05,10.0,SE,5.8,-,N/A,,Clear,130,2012-11-18 14:15:00
8:35 AM,38.1,32.0,79,30.05,10.0,SE,5.8,-,N/A,,Clear,140,2012-11-18 14:35:00
8:55 AM,40.5,32.9,74,30.05,10.0,SSE,6.9,-,N/A,,Clear,160,2012-11-18 14:55:00
9:15 AM,42.3,32.0,67,30.05,10.0,South,10.4,-,N/A,,Clear,170,2012-11-18 15:15:00
9:35 AM,43.3,32.0,64,30.05,10.0,South,8.1,-,N/A,,Clear,170,2012-11-18 15:35:00
9:55 AM,45.7,32.0,59,30.05,10.0,SSE,9.2,-,N/A,,Clear,160,2012-11-18 15:55:00
10:15 AM,47.3,32.2,56,30.04,10.0,South,8.1,-,N/A,,Clear,170,2012-11-18 16:15:00
10:35 AM,50.7,32.0,49,30.04,10.0,South,16.1,-,N/A,,Clear,190,2012-11-18 16:35:00
10:55 AM,52.2,32.0,46,30.03,10.0,South,17.3,20.7,N/A,,Clear,190,2012-11-18 16:55:00
11:15 AM,52.5,32.0,46,30.03,10.0,South,16.1,-,N/A,,Clear,190,2012-11-18 17:15:00
11:35 AM,54.1,32.5,44,30.02,10.0,South,15.0,-,N/A,,Clear,190,2012-11-18 17:35:00
11:55 AM,55.4,33.1,43,30.00,10.0,South,16.1,-,N/A,,Clear,190,2012-11-18 17:55:00
12:15 PM,57.2,33.1,40,29.99,10.0,South,13.8,-,N/A,,Clear,180,2012-11-18 18:15:00
12:35 PM,58.3,33.8,40,29.98,10.0,South,12.7,18.4,N/A,,Clear,180,2012-11-18 18:35:00
12:55 PM,60.3,33.8,37,29.98,10.0,SSW,18.4,23.0,N/A,,Clear,200,2012-11-18 18:55:00
1:15 PM,59.9,33.3,37,29.97,10.0,South,16.1,-,N/A,,Clear,170,2012-11-18 19:15:00
1:35 PM,60.1,33.4,37,29.96,10.0,South,13.8,-,N/A,,Clear,190,2012-11-18 19:35:00
1:55 PM,58.6,32.5,37,29.96,10.0,South,18.4,23.0,N/A,,Clear,170,2012-11-18 19:55:00
2:15 PM,59.0,33.1,38,29.96,10.0,South,17.3,20.7,N/A,,Clear,170,2012-11-18 20:15:00
2:35 PM,58.1,32.9,39,29.96,10.0,South,16.1,-,N/A,,Clear,180,2012-11-18 20:35:00
2:55 PM,58.3,32.9,38,29.96,10.0,South,16.1,19.6,N/A,,Clear,170,2012-11-18 20:55:00
3:15 PM,57.9,33.8,40,29.96,10.0,South,17.3,20.7,N/A,,Clear,170,2012-11-18 21:15:00
3:35 PM,57.7,33.8,41,29.96,10.0,SSE,15.0,-,N/A,,Clear,160,2012-11-18 21:35:00
3:55 PM,57.7,34.7,42,29.96,10.0,South,19.6,25.3,N/A,,Clear,170,2012-11-18 21:55:00
4:15 PM,57.2,35.6,44,29.96,10.0,South,18.4,21.9,N/A,,Clear,170,2012-11-18 22:15:00
4:35 PM,56.5,35.2,45,29.97,10.0,South,10.4,-,N/A,,Clear,170,2012-11-18 22:35:00
4:55 PM,55.2,35.2,47,29.97,10.0,South,10.4,-,N/A,,Clear,170,2012-11-18 22:55:00
5:15 PM,52.7,35.2,52,29.98,10.0,South,8.1,-,N/A,,Clear,170,2012-11-18 23:15:00
5:35 PM,49.8,34.7,56,29.98,10.0,SSE,4.6,-,N/A,,Clear,150,2012-11-18 23:35:00
5:55 PM,48.4,34.7,59,29.99,10.0,SSE,5.8,-,N/A,,Clear,160,2012-11-18 23:55:00
6:15 PM,47.1,34.7,62,29.99,10.0,SSE,4.6,-,N/A,,Clear,160,2012-11-19 00:15:00
6:35 PM,44.8,33.8,65,29.99,10.0,SSE,4.6,-,N/A,,Clear,160,2012-11-19 00:35:00
6:55 PM,45.1,34.2,65,29.99,10.0,SSE,4.6,-,N/A,,Clear,160,2012-11-19 00:55:00
7:15 PM,44.2,34.0,67,29.99,10.0,SE,3.5,-,N/A,,Clear,140,2012-11-19 01:15:00
7:35 PM,44.8,35.2,69,29.99,10.0,SSE,5.8,-,N/A,,Clear,150,2012-11-19 01:35:00
7:55 PM,46.4,36.5,68,29.98,10.0,SSE,8.1,-,N/A,,Clear,160,2012-11-19 01:55:00
8:15 PM,46.2,36.5,69,29.98,10.0,SSE,5.8,-,N/A,,Clear,160,2012-11-19 02:15:00
8:35 PM,43.2,35.4,74,29.98,10.0,Calm,Calm,-,N/A,,Clear,0,2012-11-19 02:35:00
8:55 PM,44.6,36.1,72,29.99,10.0,SSE,3.5,-,N/A,,Clear,150,2012-11-19 02:55:00
9:15 PM,43.2,35.4,74,29.99,10.0,SSE,3.5,-,N/A,,Clear,160,2012-11-19 03:15:00
9:35 PM,42.1,34.7,75,29.99,10.0,South,5.8,-,N/A,,Clear,170,2012-11-19 03:35:00
9:55 PM,42.1,35.1,76,29.98,10.0,SSE,4.6,-,N/A,,Clear,160,2012-11-19 03:55:00
10:35 PM,40.8,34.9,79,29.97,10.0,SE,4.6,-,N/A,,Clear,140,2012-11-19 04:35:00
11:15 PM,40.5,34.3,79,29.97,10.0,SSE,4.6,-,N/A,,Clear,160,2012-11-19 05:15:00
11:35 PM,41.0,34.9,79,29.97,10.0,SE,4.6,-,N/A,,Clear,140,2012-11-19 05:35:00
11:55 PM,41.0,34.7,78,29.97,10.0,SE,4.6,-,N/A,,Clear,140,2012-11-19 05:55:00